QPF
0.00 0.00 0.00 0.00 0.00 0.00 0.00 0.00 0.00 0.01 0.02 0.01 0.00 0.00 0.00 0.00 0.00 0.00 0.00 0.00 0.00 0.00 0.00 0.00 0.00 0.00 0.00 0.00 0.00 0.00 0.00 0.00 0.00 0.01 0.02 0.04 0.03 0.03 0.03 0.02 0.02 0.02 0.02 0.01 0.02 0.02 0.01 0.01 0.01 0.01 0.01 0.01 0.01 0.00 0.00 0.00 0.00 0.00 0.00 0.00 0.00 0.00 0.00 0.00 0.00 0.00 0.00 0.00 0.00
0.00 0.00 0.00 0.00 0.00 0.00 0.00 0.00 0.00 0.00 0.01 0.01 0.01 0.00 0.00 0.00 0.00 0.00 0.00 0.00 0.00 0.00 0.00 0.00 0.00 0.00 0.00 0.00 0.00 0.00 0.00 0.00 0.00 0.01 0.02 0.03 0.03 0.02 0.02 0.03 0.02 0.02 0.02 0.02 0.02 0.02 0.01 0.01 0.01 0.02 0.01 0.01 0.01 0.01 0.00 0.00 0.00 0.00 0.00 0.00 0.00 0.00 0.00 0.00 0.00 0.00 0.00 0.00 0.00
0.00 0.00 0.00 0.00 0.00 0.00 0.00 0.00 0.00 0.00 0.00 0.00 0.01 0.01 0.02 0.02 0.02 0.02 0.01 0.01 0.01 0.01 0.01 0.00 0.00 0.00 0.00 0.00 0.00 0.00 0.00 0.00 0.00 0.01 0.01 0.02 0.02 0.02 0.02 0.02 0.02 0.02 0.02 0.02 0.02 0.02 0.02 0.02 0.02 0.02 0.02 0.01 0.01 0.00 0.00 0.00 0.00 0.00 0.00 0.00 0.00 0.00 0.00 0.00 0.00 0.00 0.00 0.00 0.00
0.00 0.00 0.00 0.00 0.00 0.00 0.00 0.00 0.00 0.00 0.00 0.00 0.02 0.03 0.05 0.06 0.05 0.03 0.02 0.02 0.02 0.01 0.00 0.00 0.00 0.00 0.00 0.00 0.00 0.00 0.00 0.00 0.00 0.01 0.01 0.01 0.00 0.01 0.02 0.02 0.02 0.01 0.01 0.02 0.02 0.02 0.02 0.02 0.02 0.02 0.02 0.01 0.01 0.01 0.01 0.01 0.00 0.00 0.00 0.00 0.00 0.00 0.00 0.00 0.00 0.00 0.00 0.00 0.00
0.00 0.00 0.00 0.00 0.00 0.00 0.00 0.00 0.00 0.00 0.01 0.02 0.04 0.05 0.05 0.07 0.08 0.06 0.04 0.01 0.00 0.00 0.00 0.00 0.00 0.00 0.00 0.00 0.00 0.00 0.00 0.00 0.00 0.00 0.00 0.00 0.00 0.01 0.02 0.02 0.01 0.01 0.01 0.02 0.02 0.02 0.02 0.02 0.02 0.02 0.02 0.02 0.02 0.01 0.00 0.00 0.00 0.00 0.00 0.00 0.00 0.00 0.00 0.00 0.00 0.00 0.00 0.00 0.00
0.00 0.00 0.00 0.00 0.00 0.00 0.00 0.00 0.00 0.01 0.02 0.04 0.03 0.03 0.04 0.05 0.02 0.01 0.01 0.03 0.01 0.00 0.00 0.00 0.00 0.00 0.00 0.00 0.00 0.00 0.00 0.01 0.00 0.00 0.00 0.00 0.01 0.01 0.01 0.01 0.00 0.01 0.01 0.02 0.02 0.02 0.02 0.03 0.03 0.03 0.02 0.01 0.01 0.00 0.00 0.00 0.00 0.00 0.00 0.00 0.00 0.00 0.00 0.00 0.00 0.00 0.00 0.00 0.00
0.00 0.00 0.00 0.00 0.00 0.00 0.00 0.00 0.00 0.02 0.03 0.03 0.04 0.04 0.03 0.02 0.02 0.01 0.01 0.01 0.01 0.01 0.01 0.00 0.00 0.00 0.00 0.00 0.00 0.00 0.00 0.00 0.00 0.00 0.00 0.00 0.01 0.01 0.01 0.00 0.01 0.01 0.02 0.02 0.02 0.02 0.03 0.02 0.02 0.02 0.01 0.00 0.00 0.00 0.00 0.00 0.00 0.00 0.00 0.00 0.00 0.00 0.00 0.00 0.00 0.00 0.00 0.00 0.00
0.00 0.00 0.00 0.00 0.00 0.00 0.00 0.00 0.00 0.02 0.04 0.04 0.03 0.03 0.03 0.03 0.03 0.03 0.03 0.04 0.05 0.03 0.02 0.02 0.01 0.00 0.00 0.00 0.00 0.00 0.00 0.00 0.00 0.00 0.00 0.01 0.01 0.01 0.01 0.01 0.01 0.02 0.02 0.03 0.03 0.02 0.02 0.01 0.02 0.01 0.01 0.00 0.00 0.00 0.00 0.00 0.00 0.00 0.00 0.00 0.00 0.00 0.00 0.00 0.00 0.00 0.00 0.00 0.00
0.00 0.00 0.00 0.00 0.01 0.01 0.01 0.00 0.00 0.03 0.06 0.05 0.05 0.05 0.05 0.04 0.04 0.05 0.06 0.06 0.05 0.04 0.04 0.02 0.01 0.01 0.01 0.01 0.00 0.00 0.00 0.00 0.00 0.00 0.00 0.00 0.01 0.02 0.02 0.02 0.02 0.02 0.02 0.02 0.02 0.02 0.02 0.02 0.01 0.01 0.00 0.00 0.00 0.00 0.00 0.00 0.00 0.00 0.00 0.00 0.00 0.00 0.00 0.00 0.00 0.00 0.00 0.00 0.00
0.00 0.00 0.00 0.00 0.00 0.00 0.00 0.00 0.01 0.04 0.06 0.07 0.07 0.07 0.06 0.06 0.08 0.09 0.08 0.07 0.07 0.06 0.04 0.01 0.02 0.02 0.01 0.01 0.00 0.00 0.00 0.01 0.02 0.02 0.01 0.01 0.02 0.02 0.02 0.01 0.02 0.02 0.01 0.01 0.02 0.02 0.02 0.01 0.00 0.00 0.00 0.00 0.00 0.00 0.00 0.00 0.00 0.00 0.00 0.00 0.00 0.00 0.00 0.00 0.00 0.00 0.00 0.00 0.00
0.00 0.00 0.00 0.00 0.00 0.00 0.01 0.02 0.03 0.05 0.07 0.08 0.08 0.08 0.08 0.09 0.12 0.13 0.12 0.12 0.11 0.08 0.06 0.03 0.03 0.02 0.01 0.00 0.00 0.00 0.00 0.01 0.01 0.01 0.02 0.02 0.02 0.02 0.02 0.01 0.01 0.01 0.01 0.01 0.02 0.02 0.01 0.01 0.00 0.00 0.00 0.00 0.00 0.00 0.00 0.00 0.00 0.00 0.00 0.00 0.00 0.00 0.00 0.00 0.00 0.00 0.00 0.00 0.00
0.00 0.00 0.00 0.00 0.00 0.00 0.01 0.03 0.03 0.05 0.07 0.08 0.09 0.09 0.10 0.13 0.15 0.17 0.17 0.16 0.13 0.10 0.07 0.05 0.03 0.02 0.01 0.00 0.00 0.00 0.01 0.01 0.01 0.01 0.02 0.02 0.02 0.02 0.02 0.01 0.02 0.02 0.02 0.01 0.01 0.01 0.01 0.01 0.00 0.00 0.00 0.00 0.00 0.00 0.00 0.00 0.00 0.00 0.00 0.00 0.00 0.00 0.00 0.00 0.00 0.00 0.00 0.00 0.00
0.00 0.00 0.00 0.00 0.01 0.01 0.03 0.04 0.04 0.05 0.07 0.08 0.09 0.09 0.10 0.13 0.16 0.17 0.17 0.16 0.13 0.11 0.08 0.06 0.03 0.01 0.01 0.00 0.01 0.01 0.01 0.01 0.01 0.01 0.01 0.02 0.01 0.02 0.02 0.02 0.02 0.02 0.01 0.01 0.01 0.02 0.02 0.02 0.01 0.00 0.00 0.00 0.00 0.00 0.00 0.00 0.00 0.00 0.00 0.00 0.00 0.00 0.00 0.00 0.00 0.00 0.00 0.00 0.00
0.00 0.00 0.01 0.01 0.02 0.03 0.04 0.05 0.05 0.06 0.06 0.06 0.07 0.08 0.09 0.11 0.12 0.12 0.11 0.11 0.10 0.08 0.06 0.04 0.02 0.01 0.00 0.00 0.00 0.01 0.01 0.01 0.01 0.01 0.01 0.01 0.01 0.01 0.02 0.02 0.02 0.02 0.02 0.02 0.02 0.03 0.03 0.02 0.01 0.01 0.01 0.00 0.00 0.00 0.00 0.00 0.00 0.00 0.00 0.00 0.00 0.00 0.00 0.00 0.00 0.00 0.00 0.00 0.00
0.00 0.01 0.02 0.03 0.03 0.03 0.04 0.05 0.05 0.05 0.05 0.05 0.06 0.07 0.07 0.08 0.07 0.06 0.06 0.05 0.04 0.04 0.04 0.02 0.01 0.01 0.01 0.00 0.00 0.00 0.00 0.00 0.01 0.01 0.01 0.01 0.01 0.01 0.01 0.01 0.01 0.02 0.02 0.03 0.02 0.02 0.02 0.02 0.01 0.01 0.01 0.01 0.00 0.00 0.01 0.01 0.01 0.00 0.00 0.00 0.00 0.00 0.00 0.00 0.00 0.00 0.00 0.00 0.00
0.01 0.02 0.02 0.02 0.02 0.02 0.02 0.02 0.03 0.03 0.04 0.04 0.05 0.05 0.05 0.04 0.02 0.02 0.02 0.02 0.01 0.01 0.01 0.01 0.00 0.00 0.00 0.00 0.00 0.00 0.00 0.00 0.00 0.00 0.01 0.01 0.01 0.01 0.01 0.02 0.02 0.03 0.03 0.02 0.02 0.01 0.01 0.01 0.01 0.01 0.01 0.01 0.01 0.01 0.00 0.00 0.00 0.00 0.00 0.00 0.00 0.00 0.00 0.00 0.00 0.00 0.00 0.00 0.00
0.02 0.02 0.01 0.01 0.01 0.01 0.01 0.02 0.01 0.03 0.04 0.04 0.04 0.03 0.03 0.02 0.01 0.01 0.01 0.01 0.01 0.00 0.00 0.00 0.00 0.00 0.00 0.00 0.00 0.00 0.00 0.00 0.01 0.01 0.01 0.01 0.01 0.01 0.02 0.02 0.02 0.02 0.02 0.01 0.01 0.01 0.01 0.01 0.00 0.01 0.01 0.01 0.01 0.00 0.00 0.00 0.00 0.00 0.00 0.00 0.00 0.00 0.00 0.00 0.00 0.00 0.00 0.00 0.00
0.02 0.02 0.01 0.01 0.01 0.01 0.02 0.02 0.02 0.03 0.04 0.03 0.02 0.02 0.02 0.01 0.01 0.01 0.01 0.01 0.01 0.00 0.00 0.00 0.00 0.00 0.01 0.01 0.01 0.01 0.01 0.01 0.01 0.01 0.01 0.01 0.02 0.02 0.02 0.02 0.01 0.01 0.01 0.01 0.00 0.00 0.00 0.00 0.00 0.01 0.01 0.01 0.01 0.00 0.00 0.00 0.00 0.00 0.00 0.00 0.00 0.00 0.00 0.00 0.00 0.00 0.00 0.00 0.00
0.02 0.02 0.02 0.02 0.01 0.02 0.02 0.02 0.02 0.03 0.04 0.03 0.03 0.03 0.02 0.02 0.01 0.01 0.01 0.01 0.01 0.00 0.00 0.00 0.01 0.01 0.02 0.02 0.02 0.02 0.02 0.02 0.01 0.01 0.01 0.01 0.02 0.02 0.02 0.01 0.01 0.01 0.01 0.01 0.00 0.00 0.00 0.00 0.00 0.00 0.01 0.01 0.00 0.00 0.00 0.00 0.00 0.00 0.00 0.00 0.00 0.00 0.00 0.00 0.00 0.00 0.00 0.00 0.00
0.02 0.02 0.02 0.01 0.01 0.02 0.03 0.02 0.04 0.04 0.04 0.03 0.03 0.03 0.03 0.02 0.02 0.02 0.01 0.01 0.00 0.00 0.01 0.01 0.02 0.03 0.03 0.03 0.02 0.02 0.02 0.01 0.01 0.01 0.01 0.01 0.01 0.01 0.01 0.00 0.00 0.01 0.01 0.01 0.01 0.00 0.00 0.00 0.00 0.00 0.00 0.00 0.00 0.00 0.00 0.00 0.00 0.00 0.00 0.00 0.00 0.00 0.00 0.00 0.00 0.00 0.00 0.00 0.00
0.02 0.02 0.01 0.01 0.02 0.02 0.03 0.03 0.06 0.05 0.03 0.03 0.03 0.03 0.02 0.02 0.01 0.01 0.01 0.01 0.01 0.01 0.02 0.03 0.03 0.03 0.03 0.03 0.01 0.01 0.01 0.01 0.01 0.01 0.01 0.02 0.01 0.01 0.00 0.00 0.00 0.00 0.01 0.01 0.01 0.01 0.00 0.00 0.00 0.00 0.00 0.00 0.00 0.00 0.00 0.00 0.00 0.00 0.00 0.00 0.00 0.00 0.00 0.00 0.00 0.00 0.00 0.00 0.00
0.01 0.01 0.01 0.02 0.02 0.03 0.04 0.06 0.07 0.05 0.03 0.02 0.02 0.02 0.02 0.01 0.01 0.01 0.01 0.01 0.02 0.02 0.02 0.02 0.03 0.02 0.02 0.02 0.01 0.01 0.01 0.01 0.02 0.01 0.01 0.01 0.01 0.01 0.00 0.00 0.00 0.00 0.00 0.01 0.01 0.01 0.00 0.00 0.00 0.00 0.00 0.00 0.00 0.00 0.00 0.00 0.00 0.00 0.00 0.00 0.00 0.00 0.00 0.00 0.00 0.00 0.00 0.00 0.00
0.01 0.01 0.02 0.04 0.04 0.04 0.05 0.06 0.05 0.04 0.03 0.03 0.03 0.02 0.02 0.01 0.01 0.01 0.01 0.01 0.01 0.01 0.02 0.02 0.01 0.01 0.01 0.01 0.01 0.01 0.01 0.01 0.02 0.02 0.01 0.00 0.00 0.00 0.00 0.00 0.00 0.00 0.00 0.00 0.00 0.00 0.00 0.00 0.00 0.00 0.00 0.00 0.00 0.00 0.00 0.00 0.00 0.00 0.00 0.00 0.00 0.00 0.00 0.00 0.00 0.00 0.00 0.00 0.00
0.02 0.03 0.03 0.03 0.04 0.04 0.04 0.05 0.05 0.04 0.03 0.02 0.02 0.02 0.01 0.00 0.00 0.00 0.00 0.00 0.01 0.01 0.01 0.01 0.01 0.01 0.01 0.01 0.01 0.01 0.01 0.02 0.01 0.01 0.01 0.00 0.00 0.00 0.00 0.00 0.00 0.00 0.00 0.00 0.00 0.00 0.00 0.00 0.00 0.00 0.00 0.00 0.00 0.00 0.00 0.00 0.00 0.00 0.00 0.00 0.00 0.00 0.00 0.00 0.00 0.00 0.00 0.00 0.00
0.03 0.03 0.02 0.02 0.03 0.04 0.05 0.06 0.05 0.03 0.02 0.01 0.01 0.01 0.00 0.00 0.00 0.00 0.00 0.00 0.00 0.00 0.00 0.01 0.01 0.01 0.01 0.00 0.01 0.01 0.02 0.02 0.02 0.02 0.02 0.01 0.01 0.01 0.01 0.01 0.01 0.00 0.00 0.00 0.00 0.00 0.00 0.00 0.00 0.00 0.00 0.00 0.00 0.00 0.00 0.00 0.00 0.00 0.00 0.00 0.00 0.00 0.00 0.00 0.00 0.00 0.00 0.00 0.00
0.02 0.03 0.03 0.03 0.05 0.06 0.07 0.06 0.03 0.02 0.01 0.00 0.00 0.00 0.00 0.00 0.00 0.00 0.00 0.00 0.00 0.00 0.00 0.01 0.01 0.01 0.01 0.00 0.01 0.02 0.02 0.02 0.01 0.01 0.00 0.00 0.00 0.00 0.00 0.00 0.00 0.00 0.00 0.00 0.00 0.00 0.00 0.00 0.00 0.00 0.00 0.00 0.00 0.00 0.00 0.00 0.00 0.00 0.00 0.00 0.00 0.00 0.00 0.00 0.00 0.00 0.00 0.00 0.00
0.03 0.04 0.05 0.05 0.07 0.06 0.04 0.02 0.01 0.00 0.00 0.00 0.00 0.00 0.00 0.00 0.00 0.00 0.00 0.01 0.01 0.01 0.01 0.02 0.02 0.01 0.01 0.01 0.02 0.03 0.02 0.01 0.01 0.01 0.01 0.01 0.01 0.00 0.00 0.00 0.00 0.00 0.00 0.00 0.00 0.00 0.00 0.00 0.00 0.00 0.00 0.00 0.00 0.00 0.00 0.00 0.00 0.00 0.00 0.00 0.00 0.00 0.00 0.00 0.00 0.00 0.00 0.00 0.00
0.08 0.08 0.07 0.07 0.05 0.04 0.02 0.01 0.00 0.00 0.00 0.00 0.00 0.00 0.00 0.00 0.00 0.00 0.01 0.01 0.01 0.01 0.02 0.02 0.01 0.01 0.01 0.02 0.02 0.02 0.02 0.01 0.01 0.01 0.01 0.01 0.01 0.00 0.00 0.00 0.00 0.00 0.00 0.00 0.00 0.00 0.00 0.00 0.00 0.00 0.00 0.00 0.00 0.00 0.00 0.00 0.00 0.00 0.00 0.00 0.00 0.00 0.00 0.00 0.00 0.00 0.00 0.00 0.00
0.11 0.09 0.08 0.06 0.04 0.02 0.01 0.01 0.00 0.00 0.00 0.00 0.00 0.00 0.00 0.00 0.00 0.00 0.01 0.01 0.01 0.01 0.01 0.01 0.02 0.02 0.02 0.02 0.03 0.03 0.02 0.01 0.01 0.01 0.01 0.01 0.01 0.01 0.00 0.00 0.00 0.00 0.00 0.00 0.00 0.00 0.00 0.00 0.00 0.00 0.00 0.00 0.00 0.00 0.00 0.00 0.00 0.00 0.00 0.00 0.00 0.00 0.00 0.00 0.00 0.00 0.00 0.00 0.00
0.05 0.05 0.05 0.04 0.03 0.01 0.01 0.00 0.00 0.00 0.00 0.00 0.00 0.00 0.00 0.00 0.00 0.00 0.00 0.01 0.01 0.01 0.01 0.01 0.01 0.02 0.02 0.01 0.02 0.02 0.02 0.01 0.01 0.02 0.03 0.03 0.02 0.01 0.01 0.01 0.01 0.01 0.01 0.00 0.00 0.00 0.00 0.00 0.00 0.00 0.00 0.00 0.00 0.00 0.00 0.00 0.00 0.00 0.00 0.00 0.00 0.00 0.00 0.00 0.00 0.00 0.00 0.00 0.00
0.04 0.03 0.02 0.02 0.01 0.01 0.01 0.00 0.00 0.00 0.00 0.00 0.00 0.00 0.00 0.01 0.01 0.01 0.01 0.02 0.01 0.00 0.00 0.01 0.01 0.01 0.01 0.01 0.01 0.02 0.02 0.01 0.01 0.02 0.02 0.02 0.01 0.01 0.01 0.01 0.01 0.01 0.01 0.00 0.00 0.00 0.00 0.00 0.00 0.00 0.00 0.00 0.00 0.00 0.00 0.00 0.00 0.00 0.00 0.00 0.00 0.00 0.00 0.00 0.00 0.00 0.00 0.00 0.00
0.04 0.03 0.03 0.03 0.02 0.03 0.03 0.03 0.02 0.01 0.01 0.01 0.01 0.01 0.01 0.02 0.02 0.02 0.02 0.02 0.01 0.01 0.01 0.01 0.01 0.02 0.02 0.02 0.02 0.02 0.02 0.02 0.02 0.03 0.03 0.04 0.03 0.02 0.02 0.02 0.02 0.01 0.01 0.01 0.01 0.01 0.00 0.00 0.00 0.00 0.00 0.00 0.00 0.00 0.00 0.00 0.00 0.00 0.00 0.00 0.00 0.00 0.00 0.00 0.00 0.00 0.00 0.00 0.00
0.05 0.05 0.05 0.06 0.07 0.07 0.07 0.07 0.05 0.04 0.04 0.03 0.03 0.03 0.03 0.03 0.02 0.02 0.02 0.02 0.02 0.02 0.03 0.03 0.04 0.05 0.06 0.07 0.07 0.08 0.09 0.09 0.08 0.07 0.07 0.06 0.05 0.05 0.04 0.03 0.03 0.02 0.02 0.01 0.01 0.00 0.00 0.00 0.00 0.00 0.00 0.00 0.00 0.00 0.00 0.00 0.00 0.00 0.00 0.00 0.00 0.00 0.00 0.00 0.00 0.00 0.00 0.00 0.00
0.07 0.08 0.09 0.10 0.11 0.11 0.11 0.10 0.07 0.06 0.06 0.06 0.06 0.05 0.05 0.04 0.03 0.03 0.03 0.03 0.04 0.07 0.10 0.12 0.13 0.15 0.16 0.16 0.17 0.17 0.16 0.14 0.12 0.11 0.10 0.08 0.06 0.05 0.05 0.03 0.02 0.02 0.01 0.00 0.00 0.00 0.00 0.00 0.00 0.00 0.00 0.00 0.00 0.00 0.00 0.00 0.00 0.00 0.00 0.00 0.00 0.00 0.00 0.00 0.00 0.00 0.00 0.00 0.00
0.08 0.09 0.11 0.12 0.13 0.13 0.12 0.11 0.08 0.08 0.09 0.09 0.09 0.08 0.07 0.05 0.04 0.05 0.07 0.11 0.15 0.21 0.26 0.27 0.27 0.27 0.26 0.24 0.22 0.20 0.18 0.15 0.13 0.12 0.10 0.09 0.06 0.04 0.03 0.02 0.01 0.00 0.00 0.00 0.00 0.00 0.00 0.00 0.00 0.00 0.00 0.00 0.00 0.00 0.00 0.00 0.00 0.00 0.00 0.00 0.00 0.00 0.00 0.00 0.00 0.00 0.00 0.00 0.00
0.10 0.10 0.11 0.14 0.14 0.14 0.13 0.11 0.10 0.10 0.11 0.12 0.13 0.12 0.10 0.10 0.10 0.12 0.15 0.18 0.23 0.28 0.32 0.33 0.32 0.30 0.27 0.23 0.20 0.17 0.14 0.12 0.10 0.08 0.06 0.05 0.03 0.01 0.01 0.00 0.00 0.00 0.00 0.00 0.00 0.00 0.00 0.00 0.00 0.00 0.00 0.00 0.00 0.00 0.00 0.00 0.00 0.00 0.00 0.00 0.00 0.00 0.00 0.00 0.00 0.00 0.00 0.00 0.00
0.15 0.15 0.16 0.19 0.18 0.17 0.15 0.12 0.12 0.13 0.13 0.14 0.14 0.14 0.14 0.15 0.15 0.16 0.15 0.14 0.16 0.18 0.19 0.19 0.18 0.17 0.15 0.12 0.11 0.09 0.07 0.05 0.04 0.03 0.02 0.01 0.01 0.00 0.00 0.00 0.00 0.00 0.00 0.00 0.00 0.00 0.00 0.00 0.00 0.00 0.00 0.00 0.00 0.00 0.00 0.00 0.00 0.00 0.00 0.00 0.00 0.00 0.00 0.00 0.00 0.00 0.00 0.00 0.00
0.29 0.30 0.31 0.30 0.25 0.22 0.21 0.21 0.21 0.21 0.20 0.20 0.19 0.19 0.18 0.18 0.18 0.17 0.16 0.13 0.12 0.10 0.08 0.04 0.04 0.03 0.02 0.02 0.01 0.01 0.00 0.00 0.00 0.00 0.00 0.00 0.00 0.00 0.00 0.00 0.00 0.00 0.00 0.00 0.00 0.00 0.00 0.00 0.00 0.00 0.00 0.00 0.00 0.00 0.00 0.00 0.00 0.00 0.00 0.00 0.00 0.00 0.00 0.00 0.00 0.00 0.00 0.00 0.00
0.43 0.45 0.45 0.46 0.44 0.42 0.41 0.41 0.39 0.37 0.34 0.31 0.28 0.24 0.22 0.20 0.18 0.17 0.14 0.11 0.09 0.07 0.05 0.03 0.01 0.01 0.00 0.00 0.00 0.00 0.00 0.00 0.00 0.00 0.00 0.00 0.00 0.00 0.00 0.00 0.00 0.00 0.00 0.00 0.00 0.00 0.00 0.00 0.00 0.00 0.00 0.00 0.00 0.00 0.00 0.00 0.00 0.00 0.00 0.00 0.00 0.00 0.00 0.00 0.00 0.00 0.00 0.00 0.00
0.45 0.45 0.44 0.46 0.57 0.61 0.63 0.62 0.58 0.52 0.45 0.37 0.31 0.25 0.20 0.16 0.14 0.11 0.08 0.06 0.04 0.03 0.02 0.01 0.00 0.00 0.00 0.00 0.00 0.00 0.00 0.00 0.00 0.00 0.00 0.00 0.00 0.00 0.00 0.00 0.00 0.00 0.00 0.00 0.00 0.00 0.00 0.00 0.00 0.00 0.00 0.00 0.00 0.00 0.00 0.00 0.00 0.00 0.00 0.00 0.00 0.00 0.00 0.00 0.00 0.00 0.00 0.00 0.00
0.36 0.38 0.38 0.42 0.50 0.54 0.56 0.59 0.55 0.49 0.41 0.33 0.26 0.20 0.14 0.10 0.07 0.05 0.03 0.02 0.01 0.01 0.01 0.00 0.00 0.00 0.00 0.00 0.00 0.00 0.00 0.00 0.00 0.00 0.00 0.00 0.00 0.00 0.00 0.00 0.00 0.00 0.00 0.00 0.00 0.00 0.00 0.00 0.00 0.00 0.00 0.00 0.00 0.00 0.00 0.00 0.00 0.00 0.00 0.00 0.00 0.00 0.00 0.00 0.00 0.00 0.00 0.00 0.00
MSLP
1008.16 1008.48 1008.76 1009.00 1009.24 1009.52 1009.76 1010.04 1010.40 1010.84 1011.24 1011.40 1011.24 1011.08 1011.12 1011.40 1011.68 1011.88 1012.08 1012.32 1012.56 1012.80 1013.04 1013.28 1013.56 1013.88 1014.20 1014.48 1014.68 1014.84 1015.00 1015.20 1015.44 1015.72 1015.96 1016.24 1016.48 1016.64 1016.80 1017.00 1017.20 1017.28 1017.36 1017.48 1017.60 1017.76 1017.96 1018.12 1018.36 1018.64 1018.96 1019.20 1019.52 1019.76 1020.00 1020.16 1020.28 1020.36 1020.36 1020.40 1020.64 1020.84 1021.04 1021.24 1021.52 1021.72 1021.88 1021.96 1022.04
1008.12 1008.36 1008.56 1008.84 1009.12 1009.36 1009.64 1009.92 1010.16 1010.52 1010.92 1011.24 1011.20 1011.04 1010.96 1011.12 1011.40 1011.68 1012.00 1012.28 1012.52 1012.76 1013.04 1013.36 1013.64 1013.96 1014.24 1014.56 1014.72 1014.88 1015.08 1015.28 1015.52 1015.84 1016.12 1016.40 1016.60 1016.72 1016.88 1017.08 1017.20 1017.24 1017.32 1017.44 1017.68 1017.92 1018.24 1018.44 1018.68 1018.96 1019.24 1019.52 1019.80 1020.04 1020.24 1020.32 1020.32 1020.32 1020.40 1020.60 1020.76 1020.92 1021.04 1021.24 1021.52 1021.68 1021.84 1021.96 1022.00
1008.08 1008.32 1008.52 1008.76 1009.04 1009.32 1009.56 1009.84 1010.08 1010.28 1010.56 1010.84 1011.00 1011.12 1011.24 1011.32 1011.56 1011.92 1012.24 1012.52 1012.72 1012.96 1013.20 1013.48 1013.72 1014.00 1014.32 1014.60 1014.84 1014.96 1015.12 1015.36 1015.64 1015.96 1016.24 1016.52 1016.68 1016.84 1016.96 1017.12 1017.16 1017.24 1017.32 1017.48 1017.80 1018.12 1018.40 1018.68 1018.92 1019.20 1019.52 1019.84 1020.12 1020.36 1020.48 1020.52 1020.40 1020.40 1020.56 1020.80 1020.92 1020.96 1021.08 1021.24 1021.48 1021.68 1021.80 1021.92 1022.00
1008.04 1008.24 1008.44 1008.68 1008.84 1009.08 1009.28 1009.52 1009.76 1010.00 1010.24 1010.44 1010.84 1011.24 1011.52 1011.72 1011.96 1012.24 1012.56 1012.84 1012.96 1013.08 1013.24 1013.48 1013.80 1014.08 1014.36 1014.64 1014.88 1015.08 1015.24 1015.48 1015.76 1016.08 1016.36 1016.60 1016.80 1016.92 1017.04 1017.12 1017.24 1017.32 1017.44 1017.68 1018.04 1018.32 1018.56 1018.80 1019.04 1019.40 1019.72 1020.04 1020.28 1020.48 1020.56 1020.56 1020.52 1020.60 1020.80 1020.96 1021.00 1021.08 1021.12 1021.28 1021.44 1021.60 1021.76 1021.92 1022.00
1007.96 1008.12 1008.24 1008.44 1008.60 1008.76 1008.92 1009.12 1009.44 1009.72 1010.00 1010.36 1010.84 1011.24 1011.60 1011.96 1012.24 1012.48 1012.76 1013.00 1013.04 1013.08 1013.20 1013.40 1013.72 1014.08 1014.36 1014.64 1014.88 1015.12 1015.32 1015.60 1015.88 1016.12 1016.40 1016.68 1016.84 1016.96 1017.08 1017.12 1017.24 1017.40 1017.64 1017.92 1018.16 1018.40 1018.60 1018.84 1019.12 1019.48 1019.80 1020.12 1020.40 1020.48 1020.44 1020.40 1020.52 1020.80 1021.00 1021.08 1021.08 1021.08 1021.16 1021.32 1021.48 1021.64 1021.76 1021.92 1022.04
1007.88 1008.00 1008.12 1008.24 1008.40 1008.56 1008.76 1008.96 1009.24 1009.60 1009.96 1010.32 1010.72 1011.12 1011.52 1011.84 1012.12 1012.40 1012.68 1012.92 1013.08 1013.12 1013.24 1013.40 1013.68 1013.96 1014.28 1014.64 1014.88 1015.16 1015.44 1015.72 1015.96 1016.24 1016.44 1016.68 1016.88 1017.04 1017.12 1017.24 1017.40 1017.60 1017.84 1018.08 1018.24 1018.40 1018.56 1018.84 1019.20 1019.52 1019.84 1020.04 1020.24 1020.32 1020.28 1020.32 1020.60 1020.92 1021.12 1021.20 1021.16 1021.12 1021.20 1021.36 1021.52 1021.68 1021.80 1021.92 1022.04
1007.64 1007.84 1008.00 1008.20 1008.40 1008.56 1008.80 1009.04 1009.32 1009.64 1010.00 1010.32 1010.64 1010.92 1011.20 1011.44 1011.84 1012.16 1012.48 1012.80 1013.08 1013.24 1013.32 1013.40 1013.68 1013.96 1014.28 1014.56 1014.84 1015.20 1015.52 1015.80 1016.04 1016.24 1016.48 1016.72 1016.92 1017.04 1017.16 1017.36 1017.56 1017.80 1017.96 1018.12 1018.28 1018.44 1018.60 1018.84 1019.16 1019.52 1019.76 1019.96 1020.08 1020.16 1020.24 1020.40 1020.72 1020.96 1021.16 1021.24 1021.20 1021.20 1021.24 1021.40 1021.52 1021.64 1021.76 1021.92 1022.04
1007.52 1007.68 1007.92 1008.12 1008.40 1008.68 1008.96 1009.24 1009.48 1009.76 1010.04 1010.28 1010.56 1010.80 1011.00 1011.28 1011.68 1012.04 1012.44 1012.84 1013.20 1013.28 1013.36 1013.52 1013.84 1014.08 1014.24 1014.52 1014.80 1015.12 1015.44 1015.80 1016.04 1016.32 1016.56 1016.72 1016.92 1017.08 1017.24 1017.52 1017.72 1017.92 1018.04 1018.16 1018.36 1018.52 1018.68 1018.92 1019.20 1019.48 1019.72 1019.84 1019.92 1020.04 1020.24 1020.56 1020.80 1021.00 1021.16 1021.24 1021.24 1021.24 1021.32 1021.44 1021.56 1021.68 1021.76 1021.88 1022.00
1007.60 1007.80 1007.96 1008.20 1008.48 1008.84 1009.20 1009.52 1009.68 1009.88 1010.12 1010.32 1010.56 1010.84 1011.12 1011.40 1011.68 1012.12 1012.52 1012.96 1013.24 1013.40 1013.52 1013.80 1014.00 1014.24 1014.40 1014.56 1014.80 1015.00 1015.32 1015.64 1015.96 1016.24 1016.56 1016.76 1016.96 1017.12 1017.36 1017.60 1017.84 1018.04 1018.16 1018.24 1018.40 1018.60 1018.84 1019.04 1019.32 1019.52 1019.68 1019.72 1019.84 1020.04 1020.32 1020.56 1020.84 1021.08 1021.16 1021.16 1021.20 1021.28 1021.40 1021.52 1021.60 1021.68 1021.76 1021.88 1022.00
1007.68 1007.92 1008.12 1008.40 1008.64 1008.96 1009.32 1009.68 1009.92 1010.12 1010.24 1010.48 1010.68 1010.96 1011.28 1011.60 1011.92 1012.24 1012.64 1013.04 1013.40 1013.64 1013.76 1013.96 1014.20 1014.40 1014.64 1014.72 1014.84 1015.00 1015.24 1015.56 1015.88 1016.20 1016.48 1016.72 1016.88 1017.12 1017.40 1017.68 1017.92 1018.12 1018.28 1018.40 1018.56 1018.72 1018.96 1019.16 1019.40 1019.52 1019.60 1019.68 1019.88 1020.12 1020.36 1020.60 1020.84 1021.04 1021.12 1021.12 1021.16 1021.28 1021.40 1021.52 1021.64 1021.72 1021.80 1021.84 1021.96
1007.64 1007.92 1008.20 1008.48 1008.80 1009.08 1009.40 1009.76 1010.08 1010.32 1010.52 1010.68 1010.88 1011.12 1011.40 1011.76 1012.12 1012.40 1012.72 1013.16 1013.64 1013.96 1014.12 1014.24 1014.44 1014.68 1014.80 1014.84 1014.92 1015.08 1015.32 1015.60 1015.88 1016.16 1016.44 1016.68 1016.84 1017.12 1017.40 1017.68 1017.96 1018.12 1018.32 1018.56 1018.72 1018.96 1019.12 1019.24 1019.40 1019.52 1019.64 1019.80 1020.00 1020.24 1020.48 1020.68 1020.84 1020.96 1021.04 1021.12 1021.12 1021.24 1021.40 1021.56 1021.68 1021.76 1021.84 1021.88 1021.96
1007.76 1008.04 1008.32 1008.60 1008.92 1009.16 1009.44 1009.84 1010.12 1010.40 1010.64 1010.80 1010.96 1011.20 1011.52 1011.88 1012.20 1012.48 1012.76 1013.20 1013.68 1014.12 1014.40 1014.56 1014.76 1014.88 1014.92 1014.92 1015.00 1015.16 1015.40 1015.60 1015.88 1016.16 1016.44 1016.68 1016.92 1017.20 1017.52 1017.76 1018.00 1018.24 1018.48 1018.76 1018.96 1019.12 1019.24 1019.28 1019.40 1019.52 1019.68 1019.92 1020.20 1020.40 1020.56 1020.68 1020.80 1020.88 1020.96 1021.12 1021.20 1021.32 1021.40 1021.52 1021.64 1021.76 1021.84 1021.96 1021.96
1007.96 1008.24 1008.56 1008.84 1009.08 1009.32 1009.56 1009.92 1010.24 1010.48 1010.68 1010.88 1011.12 1011.36 1011.68 1012.00 1012.28 1012.52 1012.76 1013.12 1013.60 1014.12 1014.52 1014.76 1014.92 1015.00 1015.00 1014.96 1015.08 1015.24 1015.44 1015.68 1015.88 1016.16 1016.48 1016.80 1017.04 1017.36 1017.64 1017.88 1018.20 1018.52 1018.76 1018.96 1019.16 1019.24 1019.28 1019.32 1019.40 1019.52 1019.80 1020.08 1020.36 1020.52 1020.60 1020.64 1020.68 1020.84 1020.96 1021.12 1021.24 1021.36 1021.44 1021.52 1021.64 1021.76 1021.88 1021.92 1021.92
1008.12 1008.40 1008.68 1008.96 1009.20 1009.44 1009.68 1010.00 1010.32 1010.56 1010.80 1011.04 1011.24 1011.52 1011.84 1012.20 1012.40 1012.60 1012.80 1013.08 1013.48 1013.96 1014.40 1014.68 1014.92 1015.00 1015.04 1015.08 1015.16 1015.32 1015.52 1015.68 1015.96 1016.24 1016.56 1016.96 1017.24 1017.48 1017.80 1018.12 1018.48 1018.80 1019.04 1019.20 1019.24 1019.24 1019.28 1019.36 1019.48 1019.68 1019.96 1020.24 1020.44 1020.56 1020.60 1020.64 1020.68 1020.76 1020.92 1021.08 1021.24 1021.32 1021.40 1021.52 1021.64 1021.76 1021.84 1021.84 1021.88
1008.28 1008.56 1008.84 1009.04 1009.24 1009.52 1009.80 1010.12 1010.36 1010.64 1010.92 1011.20 1011.44 1011.72 1012.00 1012.36 1012.60 1012.76 1012.92 1013.16 1013.44 1013.80 1014.16 1014.52 1014.76 1014.96 1015.08 1015.16 1015.28 1015.40 1015.60 1015.80 1016.08 1016.40 1016.76 1017.12 1017.40 1017.68 1018.00 1018.44 1018.80 1019.04 1019.16 1019.24 1019.24 1019.24 1019.28 1019.40 1019.60 1019.84 1020.08 1020.32 1020.48 1020.60 1020.64 1020.68 1020.68 1020.76 1020.84 1020.96 1021.12 1021.24 1021.36 1021.48 1021.60 1021.68 1021.76 1021.76 1021.84
1008.48 1008.68 1008.92 1009.12 1009.36 1009.60 1009.84 1010.12 1010.40 1010.68 1010.96 1011.28 1011.60 1011.92 1012.16 1012.44 1012.68 1012.92 1013.12 1013.36 1013.48 1013.64 1013.84 1014.20 1014.56 1014.92 1015.12 1015.24 1015.40 1015.52 1015.72 1015.96 1016.24 1016.56 1016.92 1017.24 1017.52 1017.88 1018.28 1018.68 1018.96 1019.12 1019.16 1019.20 1019.20 1019.24 1019.40 1019.56 1019.80 1019.96 1020.16 1020.40 1020.56 1020.68 1020.76 1020.72 1020.72 1020.72 1020.84 1020.88 1020.96 1021.12 1021.24 1021.40 1021.52 1021.56 1021.60 1021.64 1021.68
1008.56 1008.80 1008.96 1009.20 1009.40 1009.64 1009.92 1010.16 1010.44 1010.76 1011.08 1011.40 1011.68 1011.96 1012.20 1012.40 1012.68 1013.00 1013.24 1013.40 1013.40 1013.44 1013.68 1014.12 1014.52 1014.88 1015.12 1015.36 1015.44 1015.56 1015.84 1016.12 1016.44 1016.76 1017.04 1017.36 1017.72 1018.12 1018.52 1018.80 1018.96 1019.04 1019.08 1019.12 1019.20 1019.40 1019.60 1019.84 1019.96 1020.12 1020.24 1020.44 1020.60 1020.76 1020.80 1020.76 1020.68 1020.72 1020.84 1020.88 1020.96 1021.12 1021.24 1021.32 1021.40 1021.48 1021.52 1021.52 1021.56
1008.68 1008.84 1009.04 1009.24 1009.48 1009.68 1009.96 1010.24 1010.52 1010.84 1011.12 1011.40 1011.68 1011.88 1012.12 1012.32 1012.64 1013.00 1013.28 1013.32 1013.24 1013.32 1013.68 1014.16 1014.56 1014.92 1015.12 1015.32 1015.52 1015.68 1015.96 1016.28 1016.64 1016.92 1017.24 1017.56 1017.92 1018.28 1018.60 1018.80 1018.88 1018.96 1019.00 1019.12 1019.28 1019.52 1019.76 1019.96 1020.12 1020.24 1020.40 1020.56 1020.68 1020.76 1020.76 1020.68 1020.68 1020.72 1020.84 1020.92 1021.08 1021.20 1021.28 1021.32 1021.40 1021.40 1021.44 1021.52 1021.52
1008.72 1008.92 1009.12 1009.28 1009.52 1009.80 1010.04 1010.28 1010.56 1010.88 1011.16 1011.40 1011.68 1011.88 1012.12 1012.40 1012.68 1013.00 1013.24 1013.24 1013.20 1013.40 1013.80 1014.24 1014.68 1015.00 1015.24 1015.40 1015.60 1015.88 1016.16 1016.52 1016.84 1017.12 1017.48 1017.84 1018.12 1018.40 1018.64 1018.80 1018.92 1019.00 1019.12 1019.28 1019.48 1019.68 1019.88 1020.08 1020.16 1020.32 1020.52 1020.68 1020.72 1020.72 1020.68 1020.64 1020.68 1020.72 1020.84 1020.96 1021.12 1021.24 1021.28 1021.32 1021.40 1021.40 1021.40 1021.44 1021.44
1008.84 1008.96 1009.16 1009.36 1009.56 1009.84 1010.12 1010.40 1010.68 1010.96 1011.24 1011.48 1011.72 1012.00 1012.28 1012.56 1012.80 1012.96 1013.08 1013.12 1013.24 1013.56 1014.00 1014.44 1014.84 1015.12 1015.36 1015.52 1015.80 1016.12 1016.48 1016.76 1017.04 1017.40 1017.72 1018.00 1018.24 1018.52 1018.68 1018.84 1019.08 1019.24 1019.36 1019.52 1019.64 1019.80 1019.96 1020.12 1020.24 1020.36 1020.52 1020.64 1020.68 1020.64 1020.64 1020.64 1020.72 1020.80 1020.92 1021.04 1021.16 1021.24 1021.24 1021.28 1021.32 1021.36 1021.40 1021.40 1021.44
1008.96 1009.12 1009.28 1009.48 1009.72 1009.96 1010.28 1010.60 1010.84 1011.12 1011.40 1011.68 1011.92 1012.20 1012.48 1012.72 1012.88 1012.96 1013.00 1013.12 1013.40 1013.84 1014.28 1014.68 1014.96 1015.24 1015.48 1015.76 1016.08 1016.40 1016.72 1016.96 1017.28 1017.60 1017.84 1018.12 1018.36 1018.60 1018.80 1018.96 1019.20 1019.40 1019.52 1019.68 1019.76 1019.88 1020.04 1020.20 1020.32 1020.44 1020.56 1020.60 1020.64 1020.64 1020.64 1020.68 1020.80 1020.92 1021.00 1021.12 1021.20 1021.24 1021.24 1021.28 1021.28 1021.32 1021.36 1021.40 1021.44
1009.12 1009.28 1009.52 1009.72 1010.00 1010.24 1010.56 1010.84 1011.08 1011.36 1011.64 1011.88 1012.12 1012.40 1012.64 1012.80 1012.96 1013.04 1013.12 1013.36 1013.72 1014.16 1014.56 1014.92 1015.16 1015.40 1015.68 1015.96 1016.28 1016.64 1016.96 1017.24 1017.52 1017.76 1018.00 1018.24 1018.56 1018.76 1018.96 1019.12 1019.28 1019.48 1019.64 1019.76 1019.88 1020.04 1020.16 1020.24 1020.40 1020.52 1020.56 1020.64 1020.64 1020.64 1020.64 1020.72 1020.84 1020.96 1021.04 1021.12 1021.20 1021.24 1021.24 1021.24 1021.28 1021.28 1021.32 1021.36 1021.40
1009.36 1009.56 1009.84 1010.08 1010.32 1010.60 1010.88 1011.12 1011.40 1011.64 1011.88 1012.12 1012.36 1012.56 1012.76 1012.92 1013.04 1013.20 1013.40 1013.68 1014.08 1014.48 1014.84 1015.16 1015.40 1015.64 1015.96 1016.24 1016.56 1016.84 1017.12 1017.44 1017.76 1018.00 1018.24 1018.52 1018.76 1018.96 1019.12 1019.24 1019.40 1019.52 1019.68 1019.84 1020.00 1020.16 1020.28 1020.40 1020.48 1020.56 1020.56 1020.60 1020.64 1020.64 1020.68 1020.76 1020.84 1020.96 1021.08 1021.16 1021.24 1021.24 1021.24 1021.24 1021.28 1021.28 1021.28 1021.32 1021.36
1009.68 1009.92 1010.12 1010.36 1010.64 1010.96 1011.20 1011.40 1011.60 1011.84 1012.08 1012.32 1012.52 1012.72 1012.92 1013.08 1013.24 1013.44 1013.72 1014.04 1014.44 1014.80 1015.12 1015.40 1015.68 1015.96 1016.28 1016.56 1016.84 1017.08 1017.32 1017.64 1017.96 1018.24 1018.52 1018.72 1018.92 1019.12 1019.24 1019.36 1019.48 1019.60 1019.80 1019.96 1020.12 1020.24 1020.36 1020.40 1020.52 1020.56 1020.56 1020.60 1020.64 1020.68 1020.72 1020.80 1020.88 1021.00 1021.12 1021.16 1021.20 1021.20 1021.24 1021.24 1021.24 1021.24 1021.28 1021.32 1021.28
1010.04 1010.24 1010.40 1010.64 1010.88 1011.20 1011.48 1011.68 1011.88 1012.04 1012.24 1012.40 1012.64 1012.84 1013.04 1013.24 1013.44 1013.76 1014.08 1014.44 1014.80 1015.08 1015.36 1015.68 1016.00 1016.28 1016.56 1016.84 1017.04 1017.28 1017.52 1017.76 1018.08 1018.40 1018.64 1018.84 1019.04 1019.16 1019.28 1019.44 1019.60 1019.76 1019.88 1020.04 1020.16 1020.24 1020.32 1020.40 1020.48 1020.56 1020.56 1020.60 1020.60 1020.68 1020.76 1020.84 1020.96 1021.04 1021.12 1021.16 1021.20 1021.20 1021.24 1021.24 1021.24 1021.24 1021.24 1021.28 1021.24
1010.36 1010.56 1010.76 1010.96 1011.24 1011.52 1011.80 1011.96 1012.12 1012.28 1012.44 1012.60 1012.84 1013.00 1013.24 1013.48 1013.76 1014.08 1014.40 1014.80 1015.08 1015.40 1015.68 1016.00 1016.32 1016.56 1016.76 1017.00 1017.24 1017.48 1017.68 1017.92 1018.16 1018.40 1018.68 1018.88 1019.08 1019.24 1019.36 1019.52 1019.68 1019.88 1020.04 1020.12 1020.16 1020.24 1020.28 1020.32 1020.40 1020.48 1020.56 1020.60 1020.64 1020.72 1020.84 1020.96 1021.04 1021.12 1021.12 1021.20 1021.20 1021.24 1021.28 1021.32 1021.28 1021.24 1021.24 1021.24 1021.20
1010.64 1010.84 1011.12 1011.36 1011.60 1011.84 1012.08 1012.24 1012.36 1012.48 1012.64 1012.84 1013.04 1013.28 1013.52 1013.80 1014.12 1014.44 1014.76 1015.08 1015.40 1015.72 1016.04 1016.32 1016.56 1016.80 1016.96 1017.20 1017.40 1017.64 1017.84 1018.08 1018.24 1018.48 1018.68 1018.88 1019.08 1019.28 1019.48 1019.68 1019.92 1020.12 1020.20 1020.24 1020.24 1020.28 1020.28 1020.28 1020.32 1020.40 1020.52 1020.64 1020.72 1020.84 1020.96 1021.08 1021.12 1021.12 1021.16 1021.24 1021.24 1021.28 1021.32 1021.36 1021.40 1021.36 1021.28 1021.24 1021.16
1011.00 1011.24 1011.48 1011.68 1011.96 1012.16 1012.32 1012.44 1012.56 1012.72 1012.88 1013.12 1013.36 1013.60 1013.84 1014.12 1014.48 1014.80 1015.12 1015.40 1015.76 1016.08 1016.32 1016.56 1016.76 1016.96 1017.16 1017.40 1017.60 1017.80 1017.96 1018.16 1018.36 1018.60 1018.84 1019.04 1019.32 1019.52 1019.80 1019.96 1020.12 1020.24 1020.28 1020.32 1020.36 1020.36 1020.28 1020.28 1020.28 1020.36 1020.52 1020.68 1020.84 1020.92 1021.04 1021.12 1021.12 1021.16 1021.20 1021.24 1021.28 1021.36 1021.40 1021.40 1021.40 1021.40 1021.36 1021.32 1021.24
1011.44 1011.60 1011.84 1012.04 1012.24 1012.40 1012.56 1012.68 1012.84 1013.00 1013.24 1013.44 1013.68 1013.96 1014.24 1014.56 1014.84 1015.16 1015.48 1015.76 1016.00 1016.24 1016.48 1016.68 1016.88 1017.12 1017.40 1017.64 1017.84 1017.96 1018.12 1018.36 1018.64 1018.88 1019.12 1019.40 1019.64 1019.88 1020.04 1020.16 1020.32 1020.40 1020.40 1020.40 1020.40 1020.36 1020.28 1020.24 1020.24 1020.36 1020.56 1020.76 1020.92 1021.04 1021.08 1021.12 1021.16 1021.24 1021.24 1021.28 1021.36 1021.40 1021.40 1021.40 1021.40 1021.40 1021.40 1021.40 1021.32
1011.84 1011.96 1012.12 1012.24 1012.44 1012.64 1012.80 1012.92 1013.12 1013.32 1013.52 1013.76 1014.04 1014.32 1014.60 1014.92 1015.24 1015.52 1015.80 1016.04 1016.28 1016.48 1016.64 1016.84 1017.04 1017.32 1017.60 1017.84 1018.00 1018.20 1018.44 1018.72 1018.96 1019.24 1019.52 1019.72 1019.92 1020.08 1020.20 1020.32 1020.40 1020.44 1020.44 1020.40 1020.40 1020.36 1020.32 1020.32 1020.40 1020.52 1020.68 1020.84 1020.96 1021.08 1021.12 1021.16 1021.24 1021.28 1021.32 1021.36 1021.40 1021.40 1021.40 1021.40 1021.40 1021.40 1021.40 1021.40 1021.40
1012.24 1012.28 1012.40 1012.56 1012.72 1012.92 1013.08 1013.24 1013.44 1013.68 1013.88 1014.12 1014.40 1014.68 1015.00 1015.32 1015.60 1015.84 1016.12 1016.28 1016.48 1016.68 1016.84 1017.00 1017.24 1017.52 1017.76 1017.96 1018.24 1018.52 1018.80 1019.04 1019.28 1019.52 1019.68 1019.88 1020.08 1020.20 1020.36 1020.44 1020.52 1020.48 1020.44 1020.40 1020.40 1020.40 1020.40 1020.48 1020.56 1020.60 1020.68 1020.84 1020.96 1021.12 1021.20 1021.24 1021.28 1021.32 1021.36 1021.40 1021.40 1021.44 1021.44 1021.44 1021.44 1021.44 1021.48 1021.52 1021.48
1012.56 1012.68 1012.80 1012.92 1013.08 1013.24 1013.44 1013.64 1013.84 1014.08 1014.28 1014.56 1014.84 1015.12 1015.40 1015.68 1015.96 1016.20 1016.40 1016.56 1016.68 1016.88 1017.08 1017.28 1017.52 1017.76 1018.04 1018.32 1018.56 1018.84 1019.08 1019.32 1019.52 1019.68 1019.84 1020.04 1020.20 1020.36 1020.44 1020.52 1020.56 1020.52 1020.44 1020.40 1020.44 1020.48 1020.52 1020.56 1020.56 1020.64 1020.72 1020.84 1021.00 1021.12 1021.24 1021.28 1021.36 1021.40 1021.40 1021.40 1021.48 1021.48 1021.48 1021.48 1021.52 1021.52 1021.52 1021.56 1021.56
1012.96 1013.08 1013.20 1013.36 1013.52 1013.68 1013.92 1014.12 1014.32 1014.52 1014.76 1015.00 1015.28 1015.52 1015.80 1016.04 1016.28 1016.48 1016.68 1016.80 1016.96 1017.12 1017.32 1017.52 1017.80 1018.04 1018.36 1018.64 1018.88 1019.12 1019.36 1019.52 1019.68 1019.84 1020.00 1020.20 1020.32 1020.44 1020.56 1020.56 1020.56 1020.52 1020.44 1020.44 1020.44 1020.48 1020.52 1020.56 1020.56 1020.68 1020.76 1020.92 1021.08 1021.20 1021.28 1021.36 1021.40 1021.40 1021.44 1021.48 1021.52 1021.52 1021.56 1021.56 1021.60 1021.60 1021.60 1021.60 1021.60
1013.32 1013.44 1013.60 1013.76 1013.96 1014.12 1014.36 1014.56 1014.76 1014.96 1015.20 1015.44 1015.68 1015.96 1016.12 1016.28 1016.52 1016.68 1016.88 1017.04 1017.24 1017.40 1017.60 1017.84 1018.08 1018.36 1018.60 1018.84 1019.08 1019.28 1019.48 1019.68 1019.84 1019.96 1020.12 1020.28 1020.40 1020.52 1020.56 1020.56 1020.56 1020.48 1020.40 1020.36 1020.40 1020.40 1020.44 1020.52 1020.56 1020.64 1020.80 1020.96 1021.12 1021.24 1021.36 1021.40 1021.44 1021.52 1021.52 1021.56 1021.60 1021.64 1021.64 1021.64 1021.64 1021.64 1021.60 1021.60 1021.56
1013.68 1013.84 1013.96 1014.20 1014.36 1014.56 1014.72 1014.96 1015.16 1015.40 1015.64 1015.88 1016.08 1016.28 1016.44 1016.56 1016.72 1016.92 1017.08 1017.24 1017.44 1017.68 1017.96 1018.20 1018.40 1018.64 1018.84 1019.08 1019.24 1019.40 1019.60 1019.76 1019.96 1020.12 1020.24 1020.36 1020.44 1020.52 1020.56 1020.52 1020.48 1020.36 1020.24 1020.24 1020.32 1020.36 1020.40 1020.48 1020.56 1020.68 1020.88 1021.08 1021.24 1021.36 1021.40 1021.48 1021.56 1021.64 1021.68 1021.68 1021.68 1021.68 1021.68 1021.68 1021.68 1021.64 1021.60 1021.56 1021.52
1014.12 1014.20 1014.36 1014.56 1014.76 1014.96 1015.12 1015.32 1015.56 1015.80 1016.00 1016.24 1016.40 1016.60 1016.76 1016.84 1017.04 1017.20 1017.36 1017.48 1017.68 1017.96 1018.24 1018.52 1018.72 1018.96 1019.12 1019.32 1019.44 1019.56 1019.68 1019.84 1019.96 1020.12 1020.24 1020.36 1020.44 1020.44 1020.44 1020.40 1020.36 1020.24 1020.16 1020.20 1020.24 1020.32 1020.40 1020.48 1020.60 1020.76 1020.96 1021.20 1021.36 1021.44 1021.52 1021.60 1021.68 1021.72 1021.76 1021.76 1021.76 1021.76 1021.72 1021.68 1021.64 1021.60 1021.56 1021.52 1021.48
1014.44 1014.56 1014.72 1014.92 1015.12 1015.28 1015.48 1015.68 1015.88 1016.12 1016.36 1016.56 1016.68 1016.84 1017.00 1017.12 1017.36 1017.52 1017.64 1017.72 1017.96 1018.20 1018.48 1018.68 1018.92 1019.12 1019.28 1019.40 1019.56 1019.68 1019.76 1019.88 1019.96 1020.12 1020.20 1020.24 1020.24 1020.32 1020.32 1020.32 1020.32 1020.24 1020.20 1020.20 1020.24 1020.32 1020.40 1020.48 1020.64 1020.84 1021.08 1021.28 1021.44 1021.52 1021.64 1021.72 1021.76 1021.80 1021.80 1021.80 1021.80 1021.76 1021.68 1021.68 1021.60 1021.56 1021.52 1021.44 1021.32
1014.76 1014.88 1015.00 1015.16 1015.36 1015.56 1015.76 1015.96 1016.20 1016.40 1016.64 1016.84 1016.96 1017.12 1017.28 1017.40 1017.60 1017.80 1017.92 1018.00 1018.16 1018.40 1018.64 1018.88 1019.04 1019.20 1019.36 1019.48 1019.56 1019.68 1019.80 1019.88 1019.96 1020.00 1020.08 1020.12 1020.12 1020.16 1020.20 1020.28 1020.32 1020.36 1020.28 1020.20 1020.24 1020.36 1020.48 1020.56 1020.68 1020.92 1021.12 1021.32 1021.52 1021.60 1021.68 1021.76 1021.80 1021.84 1021.84 1021.80 1021.76 1021.68 1021.68 1021.64 1021.56 1021.52 1021.44 1021.36 1021.12
1015.00 1015.12 1015.24 1015.40 1015.56 1015.76 1015.96 1016.24 1016.48 1016.68 1016.84 1017.00 1017.24 1017.40 1017.56 1017.72 1017.88 1018.08 1018.24 1018.32 1018.40 1018.56 1018.80 1019.00 1019.16 1019.28 1019.40 1019.52 1019.60 1019.72 1019.84 1019.88 1019.88 1019.88 1019.96 1020.04 1020.08 1020.08 1020.12 1020.24 1020.36 1020.40 1020.40 1020.28 1020.28 1020.40 1020.56 1020.68 1020.76 1020.96 1021.16 1021.40 1021.56 1021.68 1021.72 1021.76 1021.80 1021.84 1021.80 1021.76 1021.72 1021.68 1021.60 1021.56 1021.52 1021.48 1021.40 1021.24 1021.04
1015.28 1015.40 1015.52 1015.68 1015.84 1015.96 1016.16 1016.44 1016.68 1016.88 1017.04 1017.24 1017.48 1017.68 1017.84 1017.96 1018.12 1018.28 1018.44 1018.56 1018.68 1018.80 1018.92 1019.08 1019.24 1019.36 1019.44 1019.52 1019.60 1019.72 1019.84 1019.84 1019.84 1019.84 1019.92 1019.96 1020.00 1020.04 1020.12 1020.28 1020.40 1020.52 1020.48 1020.36 1020.40 1020.48 1020.60 1020.68 1020.84 1020.96 1021.24 1021.44 1021.56 1021.64 1021.68 1021.72 1021.76 1021.80 1021.84 1021.76 1021.72 1021.68 1021.60 1021.52 1021.48 1021.44 1021.40 1021.24 1021.12
1015.60 1015.72 1015.88 1016.00 1016.12 1016.24 1016.40 1016.64 1016.84 1017.08 1017.24 1017.48 1017.68 1017.88 1018.04 1018.16 1018.32 1018.48 1018.64 1018.76 1018.84 1018.96 1019.08 1019.16 1019.28 1019.40 1019.40 1019.48 1019.56 1019.68 1019.76 1019.84 1019.88 1019.92 1019.96 1020.00 1020.04 1020.12 1020.20 1020.36 1020.52 1020.60 1020.60 1020.52 1020.52 1020.56 1020.64 1020.72 1020.84 1021.00 1021.20 1021.40 1021.52 1021.56 1021.60 1021.68 1021.72 1021.80 1021.80 1021.76 1021.72 1021.68 1021.64 1021.52 1021.44 1021.40 1021.32 1021.24 1021.20
Thickness
5634 5634 5633 5632 5630 5629 5626 5625 5623 5621 5619 5620 5621 5623 5624 5622 5621 5619 5619 5617 5616 5614 5613 5610 5608 5605 5604 5602 5600 5600 5599 5598 5596 5595 5593 5590 5589 5587 5585 5584 5583 5581 5580 5580 5580 5579 5577 5576 5574 5571 5569 5566 5563 5561 5559 5557 5555 5554 5553 5552 5550 5548 5545 5543 5540 5538 5536 5534 5533
5630 5630 5629 5628 5626 5624 5623 5621 5621 5619 5617 5617 5618 5621 5622 5621 5619 5617 5615 5614 5612 5611 5609 5606 5604 5602 5599 5598 5597 5596 5595 5594 5593 5590 5589 5587 5584 5583 5582 5581 5580 5579 5578 5578 5577 5574 5573 5570 5569 5566 5563 5561 5558 5556 5554 5552 5552 5551 5550 5548 5546 5544 5542 5540 5538 5536 5534 5532 5530
5626 5626 5624 5623 5621 5619 5618 5617 5617 5617 5616 5615 5616 5617 5618 5616 5615 5612 5609 5608 5607 5606 5604 5602 5599 5598 5596 5594 5593 5592 5591 5590 5588 5586 5584 5583 5581 5580 5578 5577 5577 5577 5576 5575 5573 5570 5567 5565 5563 5560 5558 5555 5553 5551 5549 5548 5548 5548 5545 5543 5541 5541 5539 5537 5535 5533 5531 5529 5527
5621 5621 5620 5619 5618 5617 5616 5615 5614 5614 5614 5614 5614 5613 5611 5611 5610 5607 5604 5602 5602 5601 5600 5599 5596 5594 5592 5591 5589 5588 5587 5586 5585 5582 5580 5579 5577 5576 5575 5574 5574 5573 5572 5570 5567 5565 5562 5561 5558 5555 5553 5550 5548 5546 5545 5544 5545 5543 5540 5539 5538 5537 5536 5534 5532 5530 5528 5526 5524
5617 5617 5617 5616 5615 5614 5614 5613 5612 5611 5611 5610 5610 5608 5605 5603 5603 5601 5599 5598 5598 5599 5598 5596 5593 5591 5589 5587 5585 5584 5583 5582 5581 5579 5577 5575 5574 5572 5572 5571 5571 5569 5567 5565 5563 5561 5559 5558 5555 5552 5549 5547 5544 5543 5543 5543 5542 5539 5536 5535 5534 5533 5532 5531 5529 5527 5524 5522 5520
5613 5613 5613 5612 5612 5611 5610 5610 5609 5608 5607 5606 5605 5603 5602 5600 5599 5597 5597 5597 5595 5595 5595 5593 5591 5589 5587 5585 5582 5581 5580 5579 5577 5575 5573 5572 5570 5569 5568 5568 5567 5565 5563 5561 5560 5558 5557 5555 5552 5549 5547 5545 5543 5542 5542 5541 5538 5535 5532 5531 5531 5531 5530 5528 5525 5523 5521 5519 5516
5610 5610 5609 5608 5607 5606 5606 5605 5604 5603 5603 5602 5602 5602 5601 5600 5598 5597 5595 5593 5592 5591 5591 5590 5588 5586 5584 5582 5580 5578 5576 5575 5574 5572 5571 5568 5567 5566 5565 5564 5563 5561 5559 5558 5557 5556 5555 5553 5550 5547 5545 5544 5542 5541 5540 5538 5535 5532 5530 5528 5528 5527 5526 5524 5522 5520 5518 5516 5514
5606 5606 5605 5604 5603 5602 5601 5600 5599 5599 5598 5599 5598 5599 5599 5598 5596 5594 5592 5590 5588 5587 5587 5586 5584 5582 5582 5580 5578 5576 5574 5573 5571 5569 5567 5565 5564 5563 5561 5561 5559 5558 5556 5556 5554 5552 5551 5549 5547 5545 5543 5541 5540 5539 5537 5535 5531 5529 5527 5526 5525 5524 5523 5520 5519 5516 5515 5512 5510
5600 5601 5600 5599 5598 5597 5595 5593 5593 5594 5594 5595 5595 5595 5594 5593 5592 5591 5588 5586 5584 5584 5583 5581 5579 5579 5578 5577 5575 5574 5573 5571 5569 5566 5564 5563 5562 5560 5559 5557 5555 5554 5553 5552 5551 5550 5548 5546 5543 5542 5541 5540 5539 5536 5534 5531 5528 5525 5524 5523 5522 5521 5519 5517 5515 5513 5512 5510 5507
5595 5595 5594 5594 5592 5591 5589 5588 5588 5588 5589 5589 5589 5589 5589 5587 5587 5586 5585 5582 5580 5578 5577 5576 5575 5574 5574 5573 5572 5571 5570 5568 5566 5564 5562 5560 5559 5558 5556 5554 5552 5551 5549 5548 5547 5546 5544 5542 5540 5538 5538 5537 5535 5533 5530 5528 5525 5523 5522 5521 5520 5519 5516 5514 5512 5510 5508 5507 5504
5590 5590 5589 5588 5587 5586 5585 5583 5582 5582 5583 5583 5583 5583 5583 5583 5583 5582 5581 5578 5575 5573 5572 5570 5570 5569 5569 5568 5568 5568 5567 5565 5564 5561 5559 5558 5557 5555 5554 5551 5550 5548 5546 5545 5544 5542 5540 5539 5537 5536 5535 5533 5531 5529 5527 5524 5522 5520 5519 5518 5517 5516 5513 5510 5508 5507 5505 5503 5501
5584 5584 5583 5583 5582 5581 5581 5579 5578 5578 5578 5578 5579 5579 5579 5578 5579 5578 5577 5574 5570 5567 5566 5566 5564 5563 5563 5565 5565 5565 5563 5562 5561 5559 5557 5555 5554 5552 5550 5548 5546 5544 5542 5540 5539 5538 5536 5536 5534 5533 5532 5529 5527 5525 5523 5521 5519 5518 5516 5514 5513 5512 5510 5507 5506 5503 5501 5499 5497
5579 5578 5578 5577 5577 5577 5576 5575 5574 5574 5574 5574 5574 5575 5574 5574 5574 5574 5573 5571 5567 5564 5563 5561 5559 5559 5560 5561 5562 5561 5560 5559 5558 5556 5554 5552 5550 5548 5546 5544 5542 5539 5537 5535 5535 5534 5533 5532 5531 5530 5528 5525 5522 5521 5519 5518 5517 5516 5514 5511 5510 5508 5506 5505 5502 5500 5498 5496 5494
5573 5573 5573 5572 5572 5572 5572 5570 5570 5570 5569 5569 5569 5570 5570 5570 5570 5570 5570 5568 5566 5563 5562 5560 5557 5556 5557 5557 5558 5557 5557 5556 5554 5553 5550 5548 5546 5544 5542 5539 5537 5534 5532 5531 5531 5530 5530 5529 5527 5526 5523 5521 5518 5517 5516 5515 5514 5513 5511 5509 5507 5505 5504 5501 5500 5497 5494 5493 5492
5568 5568 5568 5568 5568 5567 5567 5567 5566 5566 5566 5565 5565 5565 5566 5565 5564 5564 5565 5565 5564 5563 5561 5558 5555 5553 5554 5554 5555 5554 5553 5552 5551 5549 5546 5544 5542 5540 5537 5534 5531 5529 5528 5528 5527 5527 5527 5525 5523 5521 5519 5517 5515 5514 5513 5512 5512 5511 5509 5507 5505 5503 5501 5499 5496 5494 5492 5491 5489
5564 5564 5563 5564 5563 5563 5562 5562 5562 5562 5561 5561 5561 5561 5561 5560 5559 5559 5561 5561 5561 5561 5559 5556 5554 5552 5551 5551 5550 5550 5549 5548 5547 5545 5542 5540 5538 5535 5532 5529 5527 5526 5526 5525 5525 5524 5523 5521 5519 5517 5515 5513 5512 5510 5509 5509 5510 5509 5506 5504 5503 5501 5498 5495 5494 5492 5490 5488 5486
5559 5560 5559 5560 5559 5559 5559 5559 5558 5558 5557 5558 5557 5558 5557 5556 5556 5556 5556 5557 5559 5559 5558 5555 5552 5550 5548 5548 5547 5547 5546 5544 5542 5540 5539 5536 5533 5530 5528 5526 5525 5524 5524 5524 5523 5521 5519 5516 5515 5514 5512 5510 5508 5507 5506 5507 5506 5505 5503 5502 5500 5497 5495 5493 5491 5489 5487 5485 5484
5555 5555 5555 5555 5555 5555 5555 5555 5555 5555 5555 5555 5555 5554 5554 5554 5553 5553 5552 5555 5557 5557 5555 5552 5550 5548 5546 5545 5544 5544 5542 5541 5538 5537 5534 5532 5529 5527 5525 5524 5522 5523 5522 5521 5519 5517 5515 5513 5511 5510 5508 5507 5505 5504 5503 5503 5503 5502 5500 5498 5495 5493 5491 5490 5488 5486 5485 5482 5481
5551 5551 5552 5551 5551 5551 5551 5552 5552 5552 5553 5552 5552 5552 5552 5552 5551 5551 5551 5553 5554 5554 5552 5549 5546 5544 5543 5542 5541 5540 5539 5537 5534 5532 5530 5527 5525 5524 5523 5521 5520 5520 5519 5517 5515 5513 5511 5509 5508 5506 5505 5503 5501 5501 5502 5501 5500 5498 5496 5494 5492 5489 5488 5486 5485 5483 5482 5479 5478
5547 5547 5547 5548 5548 5548 5548 5548 5549 5550 5550 5549 5549 5549 5549 5549 5549 5549 5550 5552 5552 5550 5547 5544 5542 5540 5539 5539 5537 5535 5533 5532 5530 5528 5526 5524 5523 5521 5520 5518 5517 5516 5514 5513 5511 5509 5508 5506 5505 5504 5503 5501 5500 5499 5499 5498 5496 5494 5492 5490 5488 5486 5485 5483 5481 5480 5478 5477 5474
5543 5544 5544 5544 5545 5544 5545 5545 5546 5546 5546 5545 5546 5546 5545 5545 5546 5547 5548 5549 5548 5545 5542 5540 5538 5537 5536 5535 5533 5531 5530 5528 5526 5524 5523 5521 5519 5518 5516 5515 5513 5512 5510 5509 5507 5506 5504 5503 5501 5501 5499 5498 5498 5497 5495 5494 5492 5490 5488 5486 5484 5483 5481 5480 5478 5477 5475 5473 5471
5540 5540 5540 5541 5540 5541 5541 5542 5543 5542 5542 5542 5542 5542 5543 5543 5544 5544 5545 5544 5542 5540 5537 5535 5534 5533 5533 5531 5530 5528 5525 5524 5522 5521 5520 5518 5516 5514 5513 5512 5510 5508 5507 5506 5504 5502 5500 5500 5499 5497 5496 5496 5494 5494 5493 5490 5489 5486 5485 5483 5481 5479 5478 5476 5475 5473 5471 5469 5467
5536 5536 5536 5536 5536 5536 5537 5537 5538 5538 5538 5538 5538 5539 5539 5539 5540 5540 5540 5539 5537 5535 5533 5532 5531 5530 5528 5526 5525 5524 5522 5520 5518 5517 5515 5514 5512 5510 5509 5507 5506 5505 5504 5502 5500 5499 5498 5497 5495 5494 5493 5493 5492 5491 5490 5487 5486 5483 5481 5480 5478 5476 5474 5473 5471 5469 5467 5465 5463
5531 5531 5531 5532 5532 5531 5532 5533 5534 5534 5535 5535 5535 5536 5536 5536 5536 5536 5535 5534 5532 5530 5529 5528 5527 5526 5524 5523 5521 5519 5518 5517 5515 5513 5511 5510 5508 5506 5506 5504 5503 5501 5500 5498 5497 5495 5494 5494 5493 5491 5491 5490 5489 5488 5486 5484 5482 5480 5478 5477 5475 5473 5471 5469 5468 5465 5463 5462 5460
5527 5527 5527 5528 5528 5529 5529 5530 5531 5532 5533 5532 5533 5533 5532 5533 5533 5532 5531 5530 5528 5527 5525 5524 5523 5521 5520 5518 5518 5517 5516 5514 5512 5510 5508 5506 5505 5503 5502 5501 5500 5498 5497 5495 5494 5493 5492 5491 5490 5489 5488 5487 5486 5484 5482 5481 5478 5477 5474 5473 5471 5469 5467 5465 5464 5462 5460 5458 5457
5522 5523 5524 5525 5525 5526 5526 5527 5528 5529 5529 5530 5530 5530 5529 5530 5529 5528 5527 5526 5524 5522 5521 5520 5519 5518 5516 5515 5515 5513 5512 5511 5509 5507 5505 5504 5502 5501 5500 5497 5496 5494 5493 5491 5490 5490 5490 5489 5488 5486 5485 5484 5483 5480 5478 5476 5475 5473 5471 5469 5468 5465 5463 5461 5460 5458 5457 5455 5453
5520 5521 5521 5522 5523 5523 5523 5524 5525 5526 5526 5526 5526 5526 5526 5526 5525 5524 5523 5522 5520 5519 5517 5516 5515 5515 5513 5513 5512 5510 5509 5507 5506 5504 5503 5501 5500 5498 5495 5493 5492 5489 5489 5488 5487 5487 5487 5487 5485 5484 5482 5480 5479 5477 5475 5472 5470 5469 5467 5465 5463 5461 5459 5458 5456 5454 5453 5451 5450
5518 5518 5519 5519 5520 5520 5520 5521 5522 5523 5523 5523 5523 5523 5522 5522 5521 5520 5519 5517 5516 5515 5514 5513 5512 5511 5510 5509 5508 5507 5506 5504 5503 5501 5499 5498 5495 5493 5491 5489 5487 5486 5485 5485 5485 5485 5484 5484 5483 5481 5478 5477 5474 5473 5471 5468 5467 5465 5463 5461 5459 5458 5456 5454 5452 5450 5448 5447 5446
5516 5516 5516 5516 5516 5517 5518 5519 5519 5520 5520 5519 5519 5519 5518 5518 5517 5516 5515 5514 5513 5512 5511 5510 5509 5509 5506 5505 5504 5503 5502 5500 5499 5496 5494 5492 5489 5488 5486 5485 5483 5483 5483 5483 5482 5482 5482 5481 5480 5477 5475 5473 5470 5469 5467 5465 5463 5461 5459 5458 5456 5454 5452 5450 5448 5447 5444 5442 5441
5512 5513 5513 5514 5514 5514 5515 5516 5516 5516 5516 5516 5516 5516 5515 5514 5513 5512 5511 5511 5510 5509 5508 5507 5506 5505 5503 5502 5501 5499 5497 5495 5493 5491 5489 5487 5485 5483 5482 5481 5481 5481 5481 5481 5480 5479 5478 5477 5476 5473 5472 5469 5466 5464 5462 5461 5459 5457 5455 5454 5452 5450 5448 5446 5444 5443 5441 5438 5436
5508 5509 5510 5510 5511 5512 5512 5513 5513 5513 5513 5513 5512 5512 5511 5510 5509 5509 5507 5507 5506 5506 5505 5504 5503 5501 5500 5498 5496 5495 5493 5491 5488 5487 5485 5483 5481 5480 5480 5479 5479 5479 5479 5478 5477 5476 5475 5473 5472 5470 5468 5465 5463 5461 5459 5457 5455 5453 5452 5450 5448 5446 5444 5442 5440 5438 5436 5434 5431
5505 5506 5506 5508 5508 5508 5509 5509 5509 5509 5510 5509 5508 5508 5507 5506 5505 5505 5504 5504 5504 5503 5502 5501 5499 5498 5496 5494 5492 5490 5489 5487 5485 5483 5481 5480 5479 5478 5477 5477 5477 5476 5476 5475 5474 5473 5472 5470 5468 5467 5464 5461 5459 5457 5455 5453 5451 5449 5447 5446 5444 5442 5440 5438 5436 5434 5432 5429 5427
5502 5502 5503 5504 5505 5505 5505 5505 5505 5505 5505 5504 5504 5503 5503 5502 5501 5501 5502 5501 5500 5499 5498 5497 5496 5494 5492 5490 5488 5486 5485 5483 5481 5480 5479 5478 5477 5476 5475 5474 5474 5474 5473 5472 5471 5470 5469 5467 5465 5463 5460 5458 5456 5454 5451 5449 5447 5446 5444 5442 5440 5437 5435 5433 5431 5429 5427 5425 5423
5499 5500 5501 5501 5501 5501 5501 5500 5501 5501 5500 5500 5499 5499 5499 5499 5500 5500 5499 5498 5497 5496 5494 5493 5492 5490 5488 5486 5485 5484 5482 5481 5479 5479 5477 5476 5474 5473 5473 5472 5472 5471 5471 5470 5468 5467 5465 5464 5462 5460 5457 5454 5452 5449 5447 5445 5443 5441 5439 5437 5435 5433 5431 5429 5427 5425 5423 5421 5419
5496 5497 5497 5497 5497 5497 5497 5497 5497 5496 5496 5495 5495 5495 5496 5498 5498 5496 5495 5494 5493 5492 5491 5489 5488 5486 5484 5483 5482 5481 5480 5479 5477 5476 5475 5473 5472 5471 5470 5469 5469 5469 5469 5467 5466 5464 5462 5461 5458 5456 5453 5450 5448 5445 5443 5441 5439 5436 5434 5432 5430 5428 5426 5425 5423 5421 5420 5417 5415
5493 5494 5494 5494 5494 5494 5494 5493 5493 5492 5492 5491 5492 5493 5495 5494 5493 5492 5491 5491 5490 5489 5487 5486 5485 5483 5482 5481 5479 5478 5477 5476 5475 5474 5472 5471 5470 5469 5468 5467 5467 5467 5466 5464 5463 5461 5459 5457 5455 5452 5449 5446 5443 5441 5439 5437 5434 5432 5430 5428 5426 5424 5422 5421 5419 5417 5415 5413 5411
5490 5491 5491 5491 5490 5491 5491 5490 5489 5489 5489 5489 5491 5491 5491 5490 5489 5488 5488 5488 5487 5486 5484 5483 5483 5481 5480 5479 5478 5476 5475 5474 5473 5471 5470 5469 5468 5467 5466 5465 5464 5464 5463 5461 5460 5458 5456 5454 5451 5448 5445 5441 5439 5437 5435 5432 5430 5428 5426 5424 5422 5420 5418 5416 5415 5413 5411 5409 5408
5487 5488 5488 5489 5488 5487 5487 5487 5487 5487 5488 5488 5488 5488 5487 5487 5485 5485 5485 5485 5484 5483 5481 5480 5479 5479 5478 5476 5475 5475 5473 5471 5470 5469 5468 5467 5466 5465 5464 5462 5460 5460 5459 5458 5457 5455 5452 5450 5447 5444 5441 5438 5435 5432 5430 5428 5426 5424 5422 5420 5418 5416 5414 5412 5411 5409 5407 5405 5405
5484 5485 5485 5486 5487 5487 5487 5486 5487 5486 5486 5485 5485 5484 5483 5483 5483 5483 5482 5482 5481 5479 5478 5477 5476 5475 5474 5474 5473 5472 5470 5469 5468 5467 5466 5465 5464 5462 5461 5459 5458 5456 5455 5455 5453 5451 5449 5447 5444 5441 5437 5434 5431 5429 5426 5424 5422 5420 5418 5416 5414 5412 5410 5409 5407 5405 5403 5402 5401
5483 5484 5485 5485 5486 5488 5487 5487 5486 5485 5484 5484 5482 5481 5480 5480 5480 5479 5479 5478 5477 5476 5475 5474 5473 5472 5471 5471 5470 5469 5468 5467 5466 5465 5464 5463 5462 5461 5459 5456 5455 5453 5452 5451 5450 5447 5445 5443 5440 5437 5434 5430 5428 5425 5423 5421 5418 5416 5414 5412 5410 5408 5406 5404 5403 5401 5399 5398 5396
5484 5485 5486 5486 5486 5485 5485 5484 5484 5483 5482 5482 5480 5479 5478 5478 5477 5476 5475 5474 5473 5472 5472 5471 5470 5469 5469 5468 5467 5467 5465 5464 5464 5462 5462 5460 5459 5458 5455 5454 5451 5449 5448 5447 5446 5444 5442 5440 5437 5434 5430 5427 5424 5422 5420 5417 5415 5413 5410 5408 5406 5404 5402 5400 5398 5397 5396 5394 5392